Location: Unspecified
(0.0000°N, 0.0000°E)
Time: 16:28:00
(UTC+00:00)

Tiros 1 - Visible Passes

Search period start: 12 April 2021 00:00
Search period end: 22 April 2021 00:00
Orbit: 630 x 663 km, 48.4° (Epoch: 11 April)

Date Brightness Start Highest point End Pass type
(mag) Time Alt. Az. Time Alt. Az. Time Alt. Az.
12 Apr 9.8 20:05:28 10° N 20:05:31 10° N 20:05:31 10° N visible
13 Apr 10.0 20:30:39 10° NW 20:31:01 12° NW 20:31:01 12° NW visible
14 Apr 8.4 19:15:28 10° N 19:18:55 24° NE 19:18:55 24° NE visible
15 Apr 7.2 19:40:27 10° NW 19:44:35 68° NNW 19:44:35 68° NNW visible
16 Apr 8.6 18:25:30 10° N 18:29:01 21° NE 18:32:35 10° E visible
16 Apr 8.9 20:06:57 10° WNW 20:10:20 28° WSW 20:10:20 28° WSW visible
17 Apr 7.1 18:50:17 10° NNW 18:54:55 71° NE 18:58:23 18° SE visible
18 Apr 10.1 05:25:01 10° SE 05:25:56 10° SE 05:26:53 10° ESE visible
18 Apr 8.6 19:16:37 10° WNW 19:20:49 33° SW 19:24:11 15° S visible
19 Apr 10.0 19:46:01 10° WSW 19:46:50 10° SW 19:47:40 10° SW visible
20 Apr 8.5 18:26:18 10° WNW 18:30:36 38° SW 18:34:59 10° SSE visible
21 Apr 8.9 04:57:35 10° S 05:01:44 30° SE 05:05:51 10° ENE visible
21 Apr 9.9 18:54:51 10° WSW 18:56:36 12° SW 18:58:23 10° SSW visible
